[[{"header":{"parameterUnit":"m.s-1","parameterCategory":1,"la1":30.2991,"la2":30.254,"lo1":-89.0895,"lo2":-89.0444,"dy":0.0017,"dx":0.0017,"nx":28,"ny":28,"refTime":"2024-02-27T03:00:00:Z","depth":0,"parameterNumber":2,"parameterNumberName":"U-component_of_WINDS"},"data":[0,0,0,0,0,0,0,0,0,0,0,0,0,0,0,0,0,0,0,0,0,0,0,0,0,0,0,0,0,0,0,0,0,0,0,0,0,0,0,0,0,0,0,0,0,0,0,0,0,0,0,0,0,0,0,0,0,0,1.6878,1.6878,0,1.6848,1.6848,1.6847,1.6783,1.6782,1.6781,1.6779,1.6751,1.6751,1.6752,0,0,0,0,0,0,0,0,0,0,0,0,0,1.6883,1.6884,1.6878,1.6878,1.6877,1.6848,1.6848,1.6847,1.6784,1.6782,1.678,1.6779,1.6751,1.6751,1.6752,0,0,0,0,0,0,0,0,0,0,0,0,0,1.687,1.6884,1.6878,1.6842,1.6839,1.6848,1.6847,1.6847,1.6784,1.6782,1.678,1.6778,1.6751,1.6751,1.6752,1.6795,0,0,1.6754,1.6754,0,0,0,0,0,0,0,0,1.6871,1.687,1.6848,1.6845,1.6841,1.6817,1.6839,1.683,1.6784,1.6805,1.6779,1.6777,1.6775,1.6773,1.6772,1.6794,1.6792,1.6754,1.6755,1.6755,1.6755,0,0,0,0,0,0,0,1.6872,1.6871,1.6866,1.6848,1.6843,1.6828,1.6824,1.6837,1.6801,1.6803,1.6798,1.6795,1.6773,1.6772,1.6771,1.6792,1.6754,1.6755,1.6755,1.6755,1.6848,1.685,0,0,0,0,0,0,1.6878,1.6872,1.6867,1.6865,1.6851,1.683,1.6825,1.6827,1.6801,1.6795,1.6797,1.6792,1.6771,1.677,1.677,1.6819,1.6755,1.6755,1.6756,1.6846,1.6849,1.6851,0,0,0,0,0,0,1.6878,1.6878,1.6868,1.6867,1.6865,1.6832,1.6834,1.6827,1.6826,1.6796,1.679,1.6802,1.677,1.6769,1.6789,1.6817,1.6756,1.6756,1.6844,1.6847,1.685,1.6918,0,0,0,0,0,0,1.6879,1.6878,1.6894,1.6868,1.6865,1.6888,1.6836,1.6828,1.6827,1.6821,1.68,1.6794,1.6768,1.6789,1.679,1.6817,1.6757,1.6841,1.6845,1.6849,1.6913,1.6923,1.6932,0,0,0,0,0,1.6879,1.6915,1.6895,1.6895,1.6884,1.689,1.6888,1.6857,1.683,1.6845,1.6826,1.6795,1.6814,1.6791,1.6792,1.682,1.6839,1.6844,1.6849,1.6909,1.6921,1.6931,0,0,0,0,0,0,1.6945,1.6911,1.6888,1.6917,1.6907,1.6879,1.6898,1.687,1.6868,1.6863,1.6824,1.682,1.6846,1.6835,1.681,1.6861,1.6821,1.6827,1.6867,1.6878,1.6887,1.689,1.6757,0,0,0,0,0,1.6963,1.697,1.6939,1.6968,1.6963,1.6932,1.6933,1.6909,1.6898,1.6893,1.6876,1.6866,1.687,1.6873,1.6875,1.6911,1.6906,1.693,1.694,1.6947,1.6953,1.6972,1.6983,1.6866,1.6866,1.6866,0,0,1.7,1.6982,1.6989,1.698,1.697,1.6979,1.6929,1.694,1.6947,1.6895,1.6914,1.69,1.6887,1.6916,1.6928,1.6907,1.6983,1.6953,1.696,1.6961,1.6978,1.6989,1.6999,1.6869,1.6869,1.6868,0,0,1.7073,1.7059,1.7082,1.7072,1.7056,1.7034,1.704,1.7016,1.7005,1.7023,1.6985,1.6992,1.6999,1.6992,1.6989,1.7059,1.703,1.706,1.7109,1.7128,1.7137,1.7145,1.7171,1.7181,1.7065,1.7065,1.7066,0,1.7122,1.7133,1.7097,1.7111,1.7108,1.7061,1.7084,1.7077,1.7063,1.7063,1.704,1.7048,1.7036,1.7062,1.708,1.7078,1.7084,1.7063,1.7139,1.7146,1.7153,1.7178,1.7188,1.7069,1.7069,1.7068,1.7068,0,1.7194,1.7202,1.7222,1.7209,1.7209,1.7227,1.7195,1.7199,1.7176,1.7157,1.7176,1.716,1.7158,1.7162,1.7139,1.7186,1.7174,1.7145,1.7106,1.7169,1.7191,1.72,1.7075,1.7073,1.7072,1.7071,0,0,1.7308,1.7275,1.7283,1.7277,1.7256,1.7262,1.7278,1.7276,1.7281,1.7272,1.7286,1.7293,1.7267,1.7264,1.724,1.7256,1.7314,1.7226,1.7225,1.7244,1.7366,1.7388,1.74,1.7294,1.7296,1.7297,1.7367,0,1.7377,1.7403,1.7371,1.7404,1.7412,1.7367,1.7382,1.7371,1.7354,1.7359,1.734,1.7346,1.731,1.7308,1.7322,1.7304,1.7338,1.7298,1.7308,1.7309,1.7314,1.7411,1.7435,1.7502,1.7376,1.7377,1.7378,0,1.7461,1.7456,1.749,1.7467,1.7469,1.7483,1.7478,1.7483,1.747,1.7457,1.7453,1.7424,1.744,1.74,1.7422,1.7395,1.7397,1.7389,1.7391,1.7392,1.7349,1.7416,1.7522,1.7533,1.7391,1.739,1.7389,0,1.7542,1.7545,1.7565,1.7561,1.7535,1.7546,1.7535,1.752,1.7521,1.7517,1.7517,1.7515,1.7515,1.7514,1.7486,1.746,1.7512,1.747,1.7502,1.7503,1.7517,1.7516,1.7626,1.7516,1.7516,1.7515,1.7515,0,1.7623,1.7646,1.7601,1.7615,1.7639,1.7602,1.7628,1.7613,1.76,1.761,1.7571,1.7582,1.7543,1.755,1.7528,1.755,1.7549,1.754,1.7534,1.7544,1.7546,1.7546,1.7541,1.7518,1.7518,1.7517,1.7517,0,1.7719,1.769,1.771,1.7683,1.7677,1.7696,1.7674,1.7685,1.7665,1.7679,1.768,1.7649,1.7655,1.7626,1.7627,1.7612,1.7646,1.7632,1.765,1.7647,1.7681,1.7679,1.7796,1.781,1.769,1.7691,1.7692,0,1.7773,1.779,1.7765,1.7768,1.776,1.7766,1.7766,1.7731,1.7733,1.772,1.7733,1.7735,1.7736,1.7747,1.7726,1.7726,1.7712,1.7753,1.7712,1.7722,1.7715,1.7715,1.7717,1.7763,1.7764,1.7765,1.7766,0,1.7873,1.7858,1.7859,1.7856,1.7857,1.7853,1.7846,1.7851,1.7813,1.7818,1.7823,1.7823,1.7823,1.7827,1.7823,1.7813,1.7785,1.7779,1.7787,1.7798,1.7809,1.7805,1.7675,1.7777,1.7776,1.7775,1.7774,1.7774,1.795,1.7963,1.7948,1.7951,1.7942,1.7937,1.7946,1.7927,1.7931,1.7928,1.7907,1.7916,1.7904,1.7896,1.7889,1.7896,1.7877,1.7888,1.7891,1.7895,1.7902,1.7807,1.7895,1.7895,1.7895,1.7894,1.7894,0,1.8049,1.8037,1.804,1.8032,1.8034,1.8005,1.7996,1.8001,1.8009,1.8,1.8,1.8007,1.801,1.7989,1.7989,1.7999,1.7986,1.8001,1.8001,1.7999,1.7918,1.7912,1.8012,1.8012,1.8012,1.8012,1.8012,1.8012,1.8101,1.8121,1.8104,1.8121,1.8108,1.8116,1.8114,1.811,1.8102,1.811,1.8112,1.8098,1.8084,1.8083,1.8085,1.8079,1.8082,1.8101,1.8091,1.8016,1.8005,1.7994,1.7988,1.8102,1.8102,1.8171,1.8172,1.8172]},{"header":{"parameterUnit":"m.s-1","parameterCategory":1,"la1":30.2991,"la2":30.254,"lo1":-89.0895,"lo2":-89.0444,"dy":0.0017,"dx":0.0017,"nx":28,"ny":28,"refTime":"2024-02-27T03:00:00:Z","depth":0,"parameterNumber":3,"parameterNumberName":"V-component_of_WINDS"},"data":[0,0,0,0,0,0,0,0,0,0,0,0,0,0,0,0,0,0,0,0,0,0,0,0,0,0,0,0,0,0,0,0,0,0,0,0,0,0,0,0,0,0,0,0,0,0,0,0,0,0,0,0,0,0,0,0,0,0,4.75,4.7502,0,4.7613,4.7614,4.7615,4.7629,4.7628,4.7627,4.7626,4.774,4.7744,4.7748,0,0,0,0,0,0,0,0,0,0,0,0,0,4.7298,4.7301,4.75,4.7502,4.7503,4.7613,4.7614,4.7616,4.7629,4.7628,4.7626,4.7625,4.7739,4.7743,4.7748,0,0,0,0,0,0,0,0,0,0,0,0,0,4.7395,4.7303,4.75,4.7523,4.7526,4.7612,4.7614,4.7616,4.7629,4.7628,4.7626,4.7624,4.7737,4.7743,4.7749,4.782,0,0,4.7767,4.777,0,0,0,0,0,0,0,0,4.739,4.7403,4.7518,4.7522,4.7525,4.7605,4.7585,4.7684,4.763,4.759,4.7626,4.7624,4.7696,4.7706,4.773,4.7825,4.783,4.7768,4.7772,4.7774,4.7776,0,0,0,0,0,0,0,4.7383,4.7398,4.7545,4.752,4.7524,4.7528,4.754,4.7604,4.7651,4.7593,4.7595,4.7608,4.7698,4.7724,4.7733,4.7831,4.7768,4.7773,4.7777,4.7779,4.7992,4.7994,0,0,0,0,0,0,4.7372,4.7392,4.7541,4.7548,4.7452,4.7533,4.7546,4.7581,4.765,4.7659,4.7609,4.7608,4.7715,4.7726,4.7737,4.7827,4.7774,4.778,4.7784,4.799,4.7993,4.7995,0,0,0,0,0,0,4.7368,4.7385,4.7537,4.7471,4.749,4.7538,4.7577,4.7584,4.7611,4.7662,4.7671,4.7628,4.7714,4.7729,4.78,4.7831,4.7783,4.7788,4.7988,4.7991,4.7994,4.8005,0,0,0,0,0,0,4.7362,4.7384,4.7411,4.7471,4.7494,4.7597,4.7579,4.7588,4.7621,4.7621,4.7682,4.769,4.7714,4.779,4.7806,4.7838,4.7793,4.7985,4.7989,4.7993,4.8002,4.8008,4.8013,0,0,0,0,0,4.7355,4.7409,4.7412,4.743,4.7529,4.7599,4.7612,4.7638,4.7624,4.7652,4.7685,4.7688,4.7824,4.7798,4.7815,4.785,4.7984,4.7988,4.7993,4.8,4.8007,4.8013,0,0,0,0,0,0,4.735,4.7417,4.7421,4.7497,4.7542,4.7601,4.7637,4.7644,4.7695,4.7692,4.7722,4.7736,4.7806,4.7835,4.7804,4.7923,4.7903,4.7911,4.7902,4.7909,4.7915,4.7907,4.7798,0,0,0,0,0,4.7358,4.7409,4.7465,4.7526,4.7548,4.7589,4.762,4.7637,4.7685,4.7704,4.7743,4.7789,4.7843,4.7877,4.7929,4.8006,4.802,4.8038,4.8044,4.8048,4.8055,4.81,4.811,4.801,4.801,4.8009,0,0,4.7374,4.7417,4.7448,4.7526,4.7563,4.7617,4.7605,4.7661,4.7701,4.7712,4.7783,4.7813,4.7867,4.7941,4.7976,4.7968,4.8086,4.8054,4.8057,4.8062,4.8106,4.8115,4.8124,4.8013,4.8012,4.8012,0,0,4.7432,4.7469,4.7525,4.7563,4.762,4.7647,4.766,4.7718,4.7739,4.781,4.782,4.7868,4.7959,4.7998,4.8029,4.8104,4.8109,4.8119,4.8149,4.8192,4.82,4.8207,4.8236,4.8246,4.8126,4.8126,4.8126,0,4.7446,4.7526,4.7553,4.761,4.7645,4.7658,4.7716,4.7751,4.7821,4.7846,4.7834,4.7951,4.7987,4.8073,4.8091,4.8115,4.8133,4.8114,4.8197,4.8204,4.8212,4.8239,4.825,4.8127,4.8127,4.8127,4.8127,0,4.7541,4.7597,4.7636,4.7705,4.7744,4.7801,4.7837,4.7873,4.7886,4.7914,4.7987,4.8032,4.8095,4.8115,4.8128,4.8203,4.8197,4.8191,4.8171,4.8222,4.8249,4.8259,4.8129,4.8128,4.8128,4.8128,0,0,4.76,4.7684,4.7698,4.7731,4.7795,4.7839,4.7896,4.7958,4.799,4.8038,4.8088,4.8166,4.8162,4.8197,4.8215,4.8252,4.8312,4.8243,4.8244,4.8256,4.84,4.8406,4.8417,4.8315,4.8317,4.8319,4.8396,0,4.7667,4.7772,4.7798,4.7887,4.794,4.7954,4.8005,4.805,4.8078,4.8127,4.8157,4.8213,4.8202,4.8224,4.8262,4.8296,4.8341,4.8291,4.8363,4.8366,4.8352,4.8431,4.8437,4.8508,4.8407,4.8408,4.841,0,4.776,4.7811,4.7906,4.7966,4.7989,4.8034,4.8094,4.814,4.8192,4.821,4.8251,4.8265,4.8327,4.8303,4.8389,4.8354,4.8385,4.8407,4.841,4.842,4.8392,4.8445,4.8531,4.8543,4.8426,4.8425,4.8423,0,4.7796,4.7889,4.7959,4.7986,4.8056,4.8088,4.8118,4.8169,4.8205,4.8257,4.8281,4.8339,4.8371,4.8416,4.8445,4.8425,4.853,4.8508,4.8548,4.8547,4.8571,4.857,4.8666,4.8587,4.8587,4.8587,4.8587,0,4.787,4.7928,4.7977,4.8019,4.8085,4.8115,4.818,4.821,4.8255,4.8305,4.8319,4.8366,4.8401,4.8452,4.8475,4.8545,4.8558,4.8576,4.8582,4.8576,4.8574,4.8598,4.8595,4.859,4.8589,4.8588,4.8588,0,4.7922,4.7957,4.8034,4.8095,4.8111,4.8157,4.821,4.8252,4.828,4.8343,4.836,4.8405,4.8466,4.85,4.8576,4.8592,4.867,4.8672,4.8653,4.8656,4.8695,4.8692,4.8812,4.8831,4.8737,4.8738,4.8739,0,4.7968,4.8014,4.808,4.8114,4.8146,4.8201,4.8239,4.8269,4.8308,4.8371,4.8407,4.8469,4.8521,4.8619,4.8658,4.8717,4.8722,4.876,4.8731,4.8725,4.8726,4.8724,4.873,4.8766,4.8767,4.8767,4.8768,0,4.8047,4.8062,4.8116,4.8176,4.8221,4.8269,4.8317,4.8345,4.8384,4.8426,4.849,4.853,4.8609,4.8672,4.8734,4.8766,4.8775,4.8777,4.879,4.8785,4.8774,4.8783,4.867,4.8774,4.8774,4.8773,4.8773,4.8773,4.81,4.8142,4.8195,4.8255,4.8295,4.834,4.8384,4.8418,4.8472,4.8539,4.8554,4.8622,4.8674,4.8759,4.8792,4.8846,4.8839,4.8857,4.8862,4.8866,4.8869,4.8763,4.8857,4.8857,4.8857,4.8857,4.8857,0,4.8181,4.8217,4.8271,4.8339,4.8387,4.839,4.8444,4.8484,4.8543,4.8591,4.8642,4.8717,4.8777,4.8822,4.8884,4.8919,4.8925,4.8935,4.8934,4.8941,4.8871,4.8855,4.8929,4.8929,4.8929,4.8929,4.8929,4.8929,4.823,4.8302,4.8324,4.8416,4.8451,4.8518,4.8549,4.8591,4.863,4.8712,4.8764,4.8792,4.884,4.8906,4.8962,4.8974,4.8997,4.9007,4.902,4.8953,4.8946,4.8939,4.8924,4.9011,4.9012,4.9086,4.9087,4.9087]}]]